This is the latest recevied weather packets stored in our database for station/object KC8RFE-2. If no packets are shown the sender has not sent any weather packets the latest 10 day(s).
| Time | Temp. | Humidity | Pressure | Rain* | Wind** | Luminosity | Snow |
|---|---|---|---|---|---|---|---|
| 1777959197 | 13.33° C | 9% | - | 8.13 mm | - | - | - |
| 1777958926 | 13.33° C | 9% | - | 7.62 mm | - | - | - |
| 1777958598 | 13.89° C | 9% | - | 7.11 mm | - | - | - |
| 1777958326 | 13.89° C | 9% | - | 6.35 mm | - | - | - |
| 1777957997 | 13.89° C | 9% | - | 6.35 mm | - | - | - |
| 1777957726 | 14.44° C | 9% | - | 6.1 mm | - | - | - |
| 1777957398 | 14.44° C | 9% | - | 5.59 mm | - | - | - |
| 1777957126 | 13.89° C | 9% | - | 5.33 mm | - | - | - |
| 1777956797 | 13.33° C | 9% | - | 4.06 mm | - | - | - |
| 1777956526 | 13.33° C | 9% | - | 2.29 mm | - | - | - |
| 1777956197 | 13.33° C | 9% | - | 3.3 mm | - | - | - |
| 1777955926 | 13.33° C | 9% | - | 6.6 mm | - | - | - |
| 1777955597 | 13.33° C | 9% | - | 12.45 mm | - | - | - |
| 1777955326 | 13.33° C | 9% | - | 12.95 mm | - | - | - |
| 1777954997 | 13.33° C | 9% | - | 12.45 mm | - | - | - |
| 1777954727 | 13.33° C | 9% | - | 11.68 mm | - | - | - |
| 1777954398 | 13.33° C | 9% | - | 11.68 mm | - | - | - |
| 1777954127 | 13.33° C | 9% | - | 11.68 mm | - | - | - |
| 1777953798 | 13.33° C | 9% | - | 11.68 mm | - | - | - |
| 1777953527 | 13.33° C | 9% | - | 11.68 mm | - | - | - |
| 1777953201 | 13.33° C | 9% | - | 11.18 mm | - | - | - |
| 1777952927 | 13.33° C | 9% | - | 9.91 mm | - | - | - |
| 1777952600 | 13.33° C | 9% | - | 6.86 mm | - | - | - |
| 1777952327 | 13.89° C | 9% | - | 0.76 mm | - | - | - |
| 1777951998 | 15.56° C | 8% | - | 0 mm | - | - | - |
* Rain latest hour (hover to see other rain measurements)
** Current wind speed in m/s (hover to see current wind gust speed)